Middletown, PA

10:48 AM EDT on September 25, 2017 (GMT -0400)
Harrisburg International

Weather History for KMDT - August, 2013

Change the Weather History Date:

Wednesday, August 7, 2013

  Actual Average Record
Temperature  
Mean Temperature 72 °F 75 °F  
Max Temperature 77 °F 84 °F 104 °F (1918)
Min Temperature 66 °F 66 °F 53 °F (1964)
Degree Days  
Heating Degree Days 0 0  
Month to date heating degree days 0 0  
Since 1 June heating degree days 2 18  
Since 1 July heating degree days 0 0  
Cooling Degree Days 7 10  
Month to date cooling degree days 41 70  
Year to date cooling degree days 756 686  
Since 1 June cooling degree days 673 621  
Growing Degree Days 22 (Base 50)    
Moisture  
Dew Point 67 °F    
Average Humidity 85    
Maximum Humidity 93    
Minimum Humidity 76    
Precipitation  
Precipitation 0.28 in 0.10 in 2.07 in (1920)
Month to date precipitation 0.64 0.79  
Year to date precipitation 21.80 24.53  
Sea Level Pressure  
Sea Level Pressure 30.05 in    
Wind  
Wind Speed 7 mph (SE)    
Max Wind Speed 14 mph    
Max Gust Speed 17 mph    
Visibility 7 miles    
Events Rain , Thunderstorm    
T = Trace of Precipitation, MM = Missing Value Source: NWS Daily Summary

Daily Weather History Graph

Daily Weather History Graph

Search for Another Location

Airport or City:

Trip Planner

Search our weather history database for the weather conditions in past years. The results will help you decide how hot, cold, wet, or windy it might be!

Date:

Astronomy

Aug. 07, 2013 Rise Set
Actual Time 6:10 AM EDT 8:14 PM EDT
Civil Twilight 5:41 AM EDT 8:43 PM EDT
Nautical Twilight 5:04 AM EDT 9:20 PM EDT
Astronomical Twilight 4:24 AM EDT 9:59 PM EDT
Moon 6:57 AM EDT (8/7) 8:19 PM EDT (8/7)
Length of Visible Light 15h 02m
Length of Day
14h 03m
New Moon, 1% of the Moon is Illuminated
Aug 7
New Moon
Aug 14
First Quarter
Aug 20
Full
Aug 28
Last Quarter
Sep 5
New

Hourly Weather History & Observations

Time (EDT) Temp. Dew Point Humidity Pressure Visibility Wind Dir Wind Speed Gust Speed Precip Events Conditions
12:43 AM 66.2 °F 62.6 °F 88% 30.09 in 10.0 mi ESE 3.5 mph - N/A   Overcast
12:56 AM 66.9 °F 63.0 °F 87% 30.08 in 10.0 mi ESE 5.8 mph - N/A   Overcast
1:56 AM 66.9 °F 63.0 °F 87% 30.08 in 9.0 mi ESE 4.6 mph - N/A   Overcast
2:32 AM 66.2 °F 64.4 °F 94% 30.08 in 9.0 mi ESE 6.9 mph - N/A   Overcast
2:56 AM 66.9 °F 64.0 °F 90% 30.07 in 9.0 mi East 8.1 mph - N/A   Overcast
3:56 AM 66.9 °F 64.0 °F 90% 30.07 in 8.0 mi East 6.9 mph - N/A   Overcast
4:56 AM 66.9 °F 64.0 °F 90% 30.08 in 7.0 mi SE 5.8 mph - 0.00 in   Light Drizzle
5:56 AM 66.9 °F 64.0 °F 90% 30.08 in 7.0 mi ESE 6.9 mph - 0.00 in   Overcast
6:04 AM 66.2 °F 64.4 °F 94% 30.08 in 7.0 mi ESE 8.1 mph - N/A   Overcast
6:35 AM 66.2 °F 64.4 °F 94% 30.08 in 5.0 mi SE 9.2 mph - N/A   Overcast
6:56 AM 66.9 °F 64.9 °F 93% 30.07 in 5.0 mi SE 8.1 mph - N/A   Overcast
7:56 AM 68.0 °F 64.9 °F 90% 30.07 in 5.0 mi SE 8.1 mph - N/A   Overcast
8:56 AM 68.0 °F 64.9 °F 90% 30.08 in 6.0 mi ESE 5.8 mph - N/A   Overcast
9:56 AM 69.1 °F 64.9 °F 87% 30.07 in 6.0 mi ESE 8.1 mph - N/A   Overcast
10:22 AM 68.0 °F 66.2 °F 94% 30.07 in 2.0 mi SE 6.9 mph - 0.00 in Rain Light Rain
10:29 AM 69.8 °F 66.2 °F 88% 30.07 in 1.8 mi SE 6.9 mph - 0.00 in   Overcast
10:36 AM 68.0 °F 66.2 °F 94% 30.07 in 2.0 mi SE 6.9 mph - 0.00 in   Overcast
10:56 AM 69.1 °F 66.9 °F 93% 30.07 in 2.0 mi SE 5.8 mph - 0.00 in   Overcast
11:44 AM 71.6 °F 66.2 °F 83% 30.07 in 8.0 mi SE 5.8 mph - N/A   Overcast
11:56 AM 71.1 °F 66.9 °F 87% 30.07 in 8.0 mi SE 6.9 mph - N/A   Overcast
12:56 PM 72.0 °F 68.0 °F 87% 30.06 in 6.0 mi SE 5.8 mph - 0.00 in Rain Light Rain
1:56 PM 75.0 °F 68.0 °F 79% 30.05 in 10.0 mi SSE 8.1 mph - 0.00 in   Overcast
2:56 PM 75.0 °F 69.1 °F 82% 30.04 in 9.0 mi SE 8.1 mph - N/A   Overcast
3:56 PM 75.0 °F 69.1 °F 82% 30.03 in 8.0 mi SE 4.6 mph - N/A   Overcast
4:56 PM 77.0 °F 70.0 °F 79% 30.01 in 9.0 mi ESE 9.2 mph - N/A   Overcast
5:56 PM 75.0 °F 69.1 °F 82% 30.01 in 8.0 mi SE 8.1 mph - N/A   Mostly Cloudy
6:56 PM 75.0 °F 69.1 °F 82% 30.00 in 7.0 mi SE 9.2 mph - N/A   Mostly Cloudy
7:56 PM 75.0 °F 70.0 °F 84% 29.99 in 7.0 mi SE 9.2 mph - N/A   Overcast
8:38 PM 73.4 °F 69.8 °F 88% 30.01 in 9.0 mi SE 5.8 mph - N/A Thunderstorm Thunderstorm
8:56 PM 73.9 °F 70.0 °F 87% 30.02 in 8.0 mi ESE 5.8 mph - 0.00 in Rain , Thunderstorm Light Thunderstorms and Rain
9:30 PM 73.4 °F 69.8 °F 88% 30.04 in 4.0 mi NNW 5.8 mph - 0.04 in Rain , Thunderstorm Thunderstorms and Rain
9:56 PM 73.0 °F 71.1 °F 93% 30.04 in 4.0 mi NW 12.7 mph - 0.12 in Rain , Thunderstorm Light Thunderstorms and Rain
10:45 PM 69.8 °F 66.2 °F 88% 30.04 in 5.0 mi SSW 9.2 mph 17.3 mph 0.09 in Rain Rain
10:56 PM 70.0 °F 66.9 °F 90% 30.03 in 5.0 mi Variable 5.8 mph - 0.12 in Rain Rain
11:56 PM 69.1 °F 66.0 °F 90% 30.04 in 10.0 mi SSE 3.5 mph - 0.04 in   Overcast